THOR ABLESTAR DEB, 652

Orbit data source: Space-Track

THOR ABLESTAR DEB, 652 is space debris in LEO originally from a launch on Thu, 29 Jun 1961 UTC launched from the Air Force Eastern Test Range (AFETR). Debris objects in space refer to the collection of defunct objects orbiting the Earth. Examples of debris include non-operational satellites, rocket bodies, and fragments generated from explosions, collisions, or faulty payload assembly.

Loading next visibility...
Identifier
652, 1961-015HD
Orbit
LEO
Country
Flag of USUS
Related business
Manufacturer
Unknown
Mission
Spacecraft
Bus & Motor
Unknown
Mass
Unknown
Launch date (UTC)
1961-06-29 (65 years ago)
Launch vehicle
Unknown
Launch site
Air Force Eastern Test Range (AFETR)
Object type
Payload
Rocket body
Debris
Shape & HBR
Unknown shape, 0.1 m
Radar Cross Section
Small (<0.1 m²)

Expand to show TLE details & history
Last TLE update: 1 day ago

TLE from 1 day ago
0 THOR ABLESTAR DEB
1 00652U 61015HD  26162.98789856  .00001976  00000-0  96629-3 0  9991
2 00652  66.7044 119.9350 0071267 354.4565   5.5730 14.18685504293124
Epoch: 2026-06-11T23:42Z
TLE epoch observation values (Epoch: 2026-06-11T23:42:34.435Z)
Latitude
-0.00002°
Longitude
-136.03229°
Altitude
780.77 km
Speed
7.49 km/s
True Right ascension
07h 59m 44s
True Declination
0° 00' 00"
Sunlit
Object was in daylight at epoch
Visualization orbit readout
Latitude
Unknown
Longitude
Unknown
Altitude
Unknown
Speed
Unknown
Apparent Right ascension
Unknown
Apparent Declination
Unknown
Sunlit
N/A
Visualization observer readout
Local Sidereal Time
19:52:13
Azimuth
Unknown
Elevation
Unknown
Doppler factor
Unknown
Orbital elements
Apogee altitude
879.542 km
Perigee altitude
776.827 km
Semi-major axis
7,206.322 km
Eccentricity
0.00713
Inclination
66.7044°
RAAN
119.935°
Arg. of periapsis
354.4565°
True anomaly
5.65302°
Mean anomaly
5.573°
Eccentric anomaly
5.61294°
Mean motion
3.54791 °/min
Orbital period
101.47 mins
BSTAR
0.00096629
Loading maneuver chart data...
Computing Atmospheric mass density...
Loading historical data...
Loading historical data...
Loading historical data...
Loading historical data...
Loading historical data...
Loading historical data...
Loading historical data...

Documentation

Showing up to 5 results
|